This demonstration page uses our WeatherBlox Daily Observations layout. Learn more.

Left ArrowRight Arrow

Hourly Observations for July 30, 2021

Temp ( °F °C ) Dew Point ( °F °C ) Humidity (%) Winds ( mph kmh ) Pressure ( in mb ) Visibility ( mi km ) Precip ( " mm )
12:59 am 00:59 Partly Cloudy 82 27.8 73 22.8 74 74 SSW 9 15 29.85 1011 9 14 0.00 0.00
1:59 am 01:59 Mostly Clear 82 27.8 73 22.8 74 74 SSW 9 15 29.83 1010 9 14 0.00 0.00
2:59 am 02:59 Partly Cloudy 81 27.2 73 22.8 77 77 SW 8 13 29.82 1010 9 14 0.00 0.00
3:59 am 03:59 Partly Cloudy 81 27.2 74 23.3 79 79 SW 9 15 29.81 1010 9 14 0.00 0.00
4:59 am 04:59 Mostly Cloudy 81 27.2 73 22.8 77 77 SSW 8 13 29.81 1010 9 14 0.00 0.00
5:59 am 05:59 Mostly Cloudy 81 27.2 73 22.8 77 77 WSW 9 15 29.82 1010 8 13 0.00 0.00
6:59 am 06:59 Partly Cloudy 81 27.2 73 22.8 77 77 WSW 9 15 29.83 1010 7 11 0.00 0.00
7:59 am 07:59 Mostly Cloudy 82 27.8 74 23.3 77 77 W 7 11 29.83 1010 7 11 0.00 0.00
8:59 am 08:59 Sunny 83 28.3 74 23.3 74 74 W 8 13 29.85 1011 7 11 0.00 0.00
9:59 am 09:59 Mostly Cloudy 85 29.4 73 22.8 68 68 WNW 9 15 29.86 1011 7 11 0.00 0.00
10:59 am 10:59 Hazy 88 31.1 72 22.2 59 59 NW 6 9 29.87 1011 6 10 0.00 0.00
11:59 am 11:59 Partly Cloudy 89 31.7 73 22.8 59 59 NNW 9 15 29.87 1011 8 13 0.00 0.00
12:59 pm 12:59 Partly Cloudy 91 32.8 71 21.7 52 52 NNE 9 15 29.86 1011 7 11 0.00 0.00
1:59 pm 13:59 Partly Cloudy 90 32.2 71 21.7 54 54 ENE 7 11 29.86 1011 7 11 0.00 0.00
2:59 pm 14:59 Partly Cloudy 92 33.3 71 21.7 51 51 VRB 6 9 29.85 1011 7 11 0.00 0.00
3:59 pm 15:59 Mostly Cloudy 92 33.3 71 21.7 51 51 ENE 8 13 29.86 1011 7 11 0.00 0.00
4:56 pm 16:56 Mostly Cloudy with Thunderstorms 88 31 72 22 59 59 N 10 17 29.87 1011 7 11 0.00 0.00
4:59 pm 16:59 Mostly Cloudy with Thunderstorms 87 30.6 70 21.1 57 57 N 13 20 29.87 1012 7 11 0.00 0.00
5:59 pm 17:59 Mostly Cloudy 89 31.7 69 20.6 52 52 VRB 3 6 29.87 1012 8 13 0.00 0.00
6:59 pm 18:59 Mostly Cloudy 86 30 71 21.7 61 61 Calm 29.88 1012 7 11 0.00 0.00
7:59 pm 19:59 Mostly Cloudy 82 27.8 73 22.8 74 74 VRB 5 7 29.89 1012 7 11 0.00 0.00
8:59 pm 20:59 Mostly Cloudy 80 26.7 71 21.7 74 74 SSE 6 9 29.90 1013 7 11 0.00 0.00
9:59 pm 21:59 Mostly Cloudy 80 26.7 70 21.1 71 71 S 7 11 29.92 1013 8 13 0.00 0.00
10:59 pm 22:59 Cloudy 78 25.6 71 21.7 79 79 S 6 9 29.94 1014 8 13 0.00 0.00
11:59 pm 23:59 Cloudy 78 25.6 72 22.2 82 82 WSW 7 11 29.95 1014 8 13 0.00 0.00

Powered by AerisWeather